• Join FlightAware (Why Join?)
  • Login
  • US Flag 
11:56AM EST


 

Airport Tracker/Info


-or-


 

Live Flight TrackerFlight Track Log ✈ RPA3496 ✈ 13-May-2014 ✈ KBOS - KPHL

Flight Track Log - Related Links

Times and Time Zones

All times are in EDT time to prevent confusion due to time zone crossing. See the RPA3496 flight status page for this flight to view local times or setup timezone preferences in your user account.

Time Position Orientation Groundspeed Altitude Reporting Facility
EDT Latitude Longitude Course Direction KTS MPH feet Rate Location/Type
12:43PM 42.3667 -70.9833 160° South 146 168 900  Level KA90
12:44PM 42.3667 -70.9333 90° East 195 224 2,700 2,400 Climbing KA90
12:45PM 42.3772 -70.8889 72° East 184 212 4,300 2,816 Climbing Boston Center
12:46PM 42.3919 -70.7875 79° East 256 295 7,300 3,223 Climbing Boston Center
12:47PM 42.3777 -70.7277 144° Southeast  Level FlightAware Approximate
12:47PM 42.3292 -70.7033 135° Southeast 320 368 10,800  Level Boston Center
12:48PM 42.3067 -70.6927 164° South  Level FlightAware Approximate
12:48PM 42.2450 -70.6614 160° South 319 367 13,900  Level Boston Center
12:49PM 42.2375 -70.6521 160° South  Level FlightAware Approximate
12:49PM 42.1533 -70.6206 162° South 342 394 16,600  Level Boston Center
12:50PM 42.0581 -70.6503 193° South 345 397 19,100 2,450 Climbing Boston Center
12:51PM 41.9628 -70.6928 198° South 355 409 21,500 2,177 Climbing Boston Center
12:52PM 41.8631 -70.7367 198° South 366 421 23,600 1,210 Climbing Boston Center
12:53PM 41.7736 -70.7933 205° Southwest 380 437 24,000 198 Climbing Boston Center
12:54PM 41.6656 -70.8769 210° Southwest 380 437 24,000  Level Boston Center
12:55PM 41.5731 -70.9458 209° Southwest 380 437 24,000  Level Boston Center
12:56PM 41.5017 -71.0389 224° Southwest 367 422 24,000  Level Boston Center
12:57PM 41.4364 -71.1439 230° Southwest 364 419 24,000  Level Boston Center
12:58PM 41.3722 -71.2481 231° Southwest 364 419 24,000  Level Boston Center
12:59PM 41.3089 -71.3519 231° Southwest 364 419 24,000  Level Boston Center
01:00PM 41.2353 -71.4697 230° Southwest 364 419 24,000  Level Boston Center
01:01PM 41.1700 -71.5744 230° Southwest 364 419 24,000  Level Boston Center
01:02PM 41.1358 -71.6764 246° West 361 415 24,000  Level Boston Center
01:03PM 41.0861 -71.8206 245° Southwest 361 415 24,000  Level Boston Center
01:04PM 41.0467 -71.9397 246° West 358 412 24,000  Level Boston Center
01:05PM 40.9958 -72.0492 238° Southwest 365 420 24,000  Level Boston Center
01:06PM 40.9261 -72.1469 227° Southwest 365 420 24,000  Level Boston Center
01:07PM 40.8539 -72.2478 227° Southwest 366 421 24,000  Level Boston Center
01:08PM 40.7758 -72.3542 226° Southwest 377 434 24,000  Level Boston Center
01:09PM 40.6933 -72.4678 226° Southwest 399 459 24,000  Level Boston Center
01:10PM 40.6172 -72.5744 227° Southwest 400 460 24,000  Level Boston Center
01:11PM 40.5419 -72.6781 226° Southwest 396 456 24,000 -49 Level Boston Center
01:12PM 40.4653 -72.7828 226° Southwest 396 456 23,900 -1,016 Descending Boston Center
01:13PM 40.3889 -72.8864 226° Southwest 396 456 21,900 -1,887 Descending Boston Center
01:14PM 40.2986 -73.0086 226° Southwest 393 452 20,000 -934 Descending Boston Center
01:15PM 40.2267 -73.1086 227° Southwest 383 441 20,000 -298 Level Boston Center
01:16PM 40.1506 -73.2086 225° Southwest 383 441 19,400 -1,065 Descending Boston Center
01:17PM 40.0761 -73.3106 226° Southwest 388 447 17,800 -1,694 Descending Boston Center
01:18PM 40.0033 -73.4069 225° Southwest 375 432 15,900 -1,785 Descending Boston Center
01:19PM 39.9347 -73.4986 226° Southwest 360 414 14,200 -863 Descending Boston Center
01:21PM 39.8453 -73.6350 230° Southwest 355 409 13,900 -129 Descending Washington Center
01:22PM 39.7844 -73.7283 230° Southwest 339 390 13,900  Level Washington Center
01:23PM 39.7233 -73.8244 230° Southwest 339 390 13,900  Level Washington Center
01:24PM 39.6622 -73.9231 231° Southwest 346 398 13,900 55 Level Washington Center
01:25PM 39.6136 -73.9994 230° Southwest 346 398 14,000 55 Climbing Boston Center
01:26PM 39.5511 -74.0953 230° Southwest 346 398 14,000  Level Boston Center
01:27PM 39.5242 -74.2119 253° West 346 398 14,000 -545 Level Boston Center
01:28PM 39.5281 -74.3647 272° West 338 389 12,800 -1,338 Descending Washington Center
01:29PM 39.5292 -74.4778 271° West 338 389 11,100 -1,487 Descending Washington Center
01:30PM 39.5239 -74.5772 266° West 310 357 9,900 -1,119 Descending Washington Center
01:31PM 39.4933 -74.6664 246° West 273 314 8,900 -327 Descending Washington Center
01:32PM 39.4667 -74.8167 257° West 267 307 9,000 -259 Climbing Philadelphia TRACON
01:33PM 39.5000 -74.9000 297° West 265 305 8,200 -1,357 Descending Philadelphia TRACON
01:34PM 39.5333 -74.9833 297° West 264 304 6,400 -1,128 Descending Philadelphia TRACON
01:35PM 39.5667 -75.0500 303° West 262 302 6,000 -203 Descending Philadelphia TRACON
01:36PM 39.6000 -75.1333 297° West 260 299 6,000  Level Philadelphia TRACON
01:37PM 39.6333 -75.2333 293° West 265 305 6,000  Level Philadelphia TRACON
01:38PM 39.6667 -75.3167 297° West 267 307 6,000 -347 Level Philadelphia TRACON
01:39PM 39.7000 -75.4000 297° West 254 292 5,300 -1,258 Descending Philadelphia TRACON
01:40PM 39.7500 -75.4333 333° Northwest 229 264 3,400 -1,550 Descending Philadelphia TRACON
01:41PM 39.8000 -75.4333 360° North 217 250 2,200 -900 Descending Philadelphia TRACON
01:42PM 39.8333 -75.3833 49° Northeast 183 211 1,600 -661 Descending Philadelphia TRACON
01:43PM 39.8500 -75.3333 67° East 129 148 900 -667 Descending Philadelphia TRACON
01:44PM 39.8667 -75.2833 67° East 115 132 300 -581 Descending Philadelphia TRACON